Home   Weather   Tuzla   Past weeks

Flag for Bosnia-Herzegovina Past Weather in Tuzla, Bosnia-Herzegovina — Yesterday and Last 2 Weeks

Now
19 °F

Ice fog.


Feels Like: 19 °F
Forecast: 17 / 31 °F
Wind: No wind

Location: Tuzla

Current Time: Jan 20, 2017 at 11:37:04 pm

Latest Report: Jan 20, 2017 at 11:00 pm


Visibility: 2 mi

Pressure: 30.54 "Hg

Humidity: 93%

Dew Point: 18 °F

Location of TuzlaLocation

Past Weather in Tuzla — Graph

°F

Tuzla Temperature Yesterday

Maximum temperature yesterday: 28 °F (at 12:00 am)
Minimum temperature yesterday: 23 °F (at 6:00 am)
Average temperature yesterday: 27 °F

High & Low Weather Summary for the Past Weeks

 TemperatureHumidityPressure
High55 °F (Jan 13, 2:00 pm)100% (Jan 9, 10:30 am)30.60 "Hg (Jan 9, 10:30 am)
Low-17 °F (Jan 8, 7:30 am)38% (Jan 13, 2:30 pm)29.30 "Hg (Jan 13, 6:00 pm)
Average21 °F81%30.14 "Hg
* Reported Jan 5 10:00 pm — Jan 20 10:00 pm, Tuzla, Weather by CustomWeather, © 2017

Note: Actual official high and low records may vary slightly from our data, if they occured in-between our weather recording intervals... More about our weather records

Advertising

Tuzla Weather History for the Previous 24 Hours

Scroll right to see more
 ConditionsComfort  
Time TempWeatherWind HumidityBarometerVisibility
10:00 pm
Fri, Jan 20
23 °FPassing clouds.3 mph86%30.54 "Hg4 mi
9:00 pm25 °FPassing clouds.3 mph80%30.54 "Hg5 mi
8:30 pm27 °FMostly cloudy.5 mph74%30.54 "Hg6 mi
8:00 pm27 °FPassing clouds.3 mph74%30.54 "Hg6 mi
7:30 pm27 °FPassing clouds.3 mph80%30.54 "Hg4 mi
7:00 pm28 °FPassing clouds.5 mph74%30.54 "Hg4 mi
6:30 pm28 °FPassing clouds.7 mph74%30.54 "Hg5 mi
6:00 pm28 °FPassing clouds.5 mph74%30.54 "Hg5 mi
5:30 pm28 °FPassing clouds.5 mph74%30.54 "Hg4 mi
5:00 pm27 °FPassing clouds.2 mph74%30.54 "Hg5 mi
4:30 pm25 °FPartly sunny.6 mph74%30.54 "HgN/A
4:00 pm28 °FScattered clouds.6 mph64%30.54 "HgN/A
3:30 pm30 °FPassing clouds.2 mph59%30.54 "HgN/A
3:00 pm30 °FPassing clouds.2 mph59%30.54 "HgN/A
2:30 pm30 °FPassing clouds.3 mph59%30.54 "HgN/A
2:00 pm32 °FScattered clouds.2 mph55%30.54 "HgN/A
1:30 pm30 °FScattered clouds.1 mph64%30.54 "HgN/A
1:00 pm28 °FScattered clouds.3 mph69%30.57 "HgN/A
12:30 pm30 °FPassing clouds.3 mph64%30.57 "HgN/A
12:00 pm30 °FPassing clouds.5 mph64%30.57 "HgN/A
11:30 am30 °FPassing clouds.1 mph64%30.57 "Hg5 mi
11:00 am30 °FPassing clouds.1 mph64%30.60 "Hg4 mi
10:30 am27 °FPassing clouds.2 mph69%30.60 "Hg4 mi
10:00 am23 °FIce fog.2 mph80%30.60 "Hg3 mi
9:30 am25 °FIce fog.3 mph74%30.60 "Hg3 mi
9:00 am23 °FIce fog.1 mph80%30.60 "Hg2 mi
8:30 am19 °FIce fog.1 mph100%30.60 "Hg2 mi
8:00 am19 °FPartly sunny.3 mph100%30.60 "Hg4 mi
7:30 am21 °FIce fog.2 mph93%30.57 "Hg3 mi
7:00 am21 °FPassing clouds.1 mph93%30.57 "Hg4 mi
6:30 am21 °FPassing clouds.1 mph93%30.60 "Hg5 mi
6:00 am21 °FPassing clouds.1 mph93%30.57 "HgN/A
5:30 am21 °FPassing clouds.2 mph93%30.57 "HgN/A
5:00 am21 °FPassing clouds.2 mph93%30.57 "HgN/A
4:30 am21 °FPassing clouds.1 mph93%30.57 "HgN/A
12:00 am25 °FPassing clouds.2 mph93%30.57 "Hg5 mi
11:00 pm
Thu, Jan 19
25 °FPassing clouds.1 mph93%30.57 "Hg4 mi
Weather by CustomWeather, © 2017

See weather overviewHow to use our weather pages